Theta_e
316 315 315 314 313 311 311 310 309 307 307 308 308 308 308 309 309 312 316 319 318 317 316 316 316 316 317 317 316 316 319 321 321 318 321 317 312 315 318 320 322 319 319 320 317 324 329 328 329 328 331 331 339 353 354 359 365 366 371 365 358 363 370 371 371 369 361 364 371 364 365 367 359 363 360 357 360 354 351 347 347 349 349 349 349 350 351 352
316 316 315 315 314 313 312 312 311 309 308 307 308 308 309 309 308 310 315 319 319 317 316 316 316 317 317 316 317 319 321 322 323 325 325 312 314 319 321 323 323 321 319 322 317 321 330 331 330 330 334 334 340 352 356 359 361 367 372 364 362 369 372 369 368 370 363 363 371 369 366 364 359 361 360 358 359 355 351 348 349 353 351 349 350 351 352 351
314 314 315 314 314 313 313 312 312 310 309 308 308 308 309 309 309 309 313 319 319 318 317 317 317 318 317 317 318 321 321 323 332 337 327 312 318 321 323 326 326 324 321 322 317 318 326 330 329 332 336 333 341 356 359 358 359 367 370 365 368 370 366 365 367 370 365 363 370 371 367 365 362 362 364 363 360 355 352 350 352 356 352 351 350 350 352 351
312 312 312 312 312 312 313 312 312 311 310 309 308 308 308 309 309 309 310 317 320 319 318 318 318 318 317 317 320 323 321 328 333 331 326 320 322 321 323 326 327 328 324 320 316 319 325 327 328 332 335 332 341 356 359 358 358 361 366 372 373 364 360 363 367 368 365 365 370 371 365 364 365 364 366 364 361 357 352 349 352 354 351 351 350 349 352 352
312 312 313 313 312 312 312 312 312 311 311 310 309 309 308 308 309 309 309 314 319 319 318 319 319 318 318 319 322 324 326 332 327 325 327 327 325 324 324 324 327 329 324 318 315 319 324 325 330 334 332 333 347 358 359 357 354 358 363 369 370 361 359 365 367 366 366 367 369 369 364 363 366 367 367 363 361 359 353 347 347 350 349 350 350 349 351 351
316 315 315 315 314 313 313 312 312 312 311 311 310 309 309 309 309 310 309 312 318 319 319 319 319 319 319 321 325 324 329 331 327 325 327 327 327 327 326 326 327 326 321 317 315 321 327 329 332 334 329 332 350 359 357 353 352 362 365 360 362 360 361 368 367 366 366 367 368 368 366 368 371 368 366 364 365 365 360 351 345 347 349 349 350 350 351 351
318 318 317 317 316 316 315 314 313 312 312 311 311 310 309 309 309 310 309 310 316 319 319 319 319 320 321 323 326 327 333 333 327 326 327 325 323 322 324 324 323 321 317 315 321 329 333 334 333 331 327 323 340 353 351 352 352 358 363 362 360 355 359 365 366 366 365 365 367 367 365 371 373 365 364 365 365 365 359 349 345 347 349 348 349 349 350 351
318 319 318 318 318 317 316 316 315 313 312 312 311 310 310 310 309 310 310 309 314 319 319 319 319 321 323 325 328 334 340 334 324 326 328 323 319 317 317 318 318 316 312 313 325 332 332 333 331 327 323 316 331 348 349 353 355 353 355 362 361 357 364 366 366 369 364 364 366 365 369 372 369 363 362 362 363 360 351 346 346 347 348 348 349 349 350 350
317 317 318 319 319 318 318 317 316 315 314 312 311 311 310 310 310 310 310 310 313 319 320 319 320 322 325 326 328 330 333 328 323 327 327 322 317 314 313 315 315 313 312 317 324 326 326 329 329 322 318 317 323 330 342 354 357 355 354 362 366 365 369 367 369 371 366 367 365 363 372 373 365 361 359 360 368 364 349 347 348 347 348 348 348 349 350 350
315 316 317 318 318 318 318 318 317 316 315 313 312 311 310 310 310 310 311 310 311 318 320 319 321 323 326 327 327 327 326 322 324 326 323 320 315 312 313 313 312 312 316 322 323 324 324 324 324 319 316 319 316 316 339 352 350 355 359 364 367 368 368 367 370 370 366 367 363 362 370 373 366 360 360 362 371 366 349 347 349 348 349 348 348 349 349 350
315 316 316 317 318 318 319 318 318 317 316 314 312 311 311 310 311 311 311 310 311 317 320 319 322 325 326 327 328 328 326 323 324 325 322 319 314 312 312 312 312 314 319 321 322 322 322 321 319 318 316 316 315 321 340 350 351 357 363 365 365 367 367 365 370 368 364 364 363 366 367 369 365 361 371 369 364 363 352 348 349 348 349 348 348 349 349 349
314 314 316 316 317 317 318 318 318 317 316 315 313 312 311 311 311 312 312 310 312 317 320 319 322 325 326 330 333 329 325 324 324 324 323 319 317 315 314 314 314 316 320 321 321 321 321 321 318 318 319 316 318 321 332 349 358 359 363 370 369 368 369 366 368 367 362 365 366 365 362 367 367 366 379 372 360 364 358 350 348 348 348 348 348 348 348 348
313 313 314 315 316 317 317 318 318 317 316 315 313 311 311 312 312 312 313 312 313 318 320 320 323 324 327 333 334 328 326 326 324 323 323 321 320 319 316 317 317 318 320 321 321 322 321 321 319 318 319 318 316 319 335 354 360 362 363 373 373 369 374 369 365 365 362 366 369 360 357 371 375 368 374 370 360 363 360 351 347 347 346 346 348 347 348 347
314 314 313 314 315 316 317 318 318 317 316 315 312 312 312 313 313 315 314 312 315 318 320 321 323 325 331 335 329 326 326 327 326 323 323 322 322 322 322 320 320 319 321 322 322 323 321 320 318 317 318 317 317 330 350 355 358 366 362 367 371 361 367 368 361 365 364 363 368 356 353 371 378 367 368 367 361 361 360 353 346 348 347 344 346 345 346 346
316 315 314 314 314 315 316 317 317 317 316 314 312 312 313 316 319 319 315 314 317 319 321 323 323 325 335 335 326 323 325 325 326 324 322 323 322 323 325 323 322 322 322 322 323 322 321 318 316 317 318 316 325 343 355 354 355 362 356 359 365 357 365 373 361 363 366 364 364 355 355 370 369 362 363 363 360 360 361 354 348 352 353 346 344 343 344 344
316 316 316 316 315 315 316 317 317 317 315 312 312 313 317 323 325 320 316 317 320 319 321 325 323 325 332 330 325 325 324 324 324 323 322 323 323 324 324 322 322 322 322 322 321 320 319 317 318 319 317 317 334 353 356 350 348 352 354 355 361 360 362 368 363 361 366 367 362 357 364 374 363 357 364 365 360 360 360 357 353 357 361 355 349 346 345 344
316 315 315 315 316 315 315 316 317 316 314 312 312 317 323 326 323 319 318 320 321 321 322 325 323 323 326 325 325 327 326 324 322 323 322 322 323 323 322 320 320 318 319 320 318 318 317 317 318 318 320 320 330 345 339 330 334 346 351 351 357 363 358 359 364 362 364 368 366 362 367 373 367 362 367 367 360 360 360 358 358 360 363 363 357 353 353 350
317 316 315 314 315 316 316 316 317 315 312 312 315 321 326 326 323 321 322 323 322 323 324 325 324 322 323 324 323 324 325 324 324 323 321 321 322 323 323 320 317 316 318 319 317 318 316 316 319 319 321 321 323 331 325 321 333 348 351 350 352 355 354 358 363 363 365 367 367 365 367 371 368 364 367 367 362 359 358 357 358 359 358 362 361 357 358 355
316 317 316 314 313 315 316 316 317 315 312 313 317 322 325 325 325 324 323 325 326 327 327 328 328 324 323 324 323 322 323 322 324 322 320 321 321 321 321 318 318 317 317 319 318 316 315 317 320 318 317 320 323 326 324 325 336 350 353 352 349 344 347 362 367 364 365 366 367 367 368 372 369 365 369 367 363 361 360 359 357 355 355 360 361 359 358 354
317 317 318 317 314 313 316 317 316 314 313 314 316 320 322 323 329 330 325 328 331 326 323 326 328 326 325 325 323 323 323 320 322 322 320 320 319 319 319 317 320 319 318 321 318 315 316 316 317 317 318 321 323 324 325 326 331 336 334 334 337 333 335 356 370 365 364 366 368 367 365 369 367 366 370 366 363 364 361 359 356 353 353 357 358 356 354 353
317 317 318 319 316 313 314 317 316 313 314 315 317 318 319 318 323 326 322 326 327 322 324 325 323 324 324 323 322 322 321 320 320 320 319 319 319 318 318 319 320 321 321 320 317 317 317 315 317 319 320 320 321 323 323 322 323 324 322 323 328 333 339 353 366 365 363 364 365 367 367 368 366 366 369 368 363 360 356 355 357 354 350 352 355 354 355 357
316 317 318 319 319 314 313 316 315 313 314 315 316 317 317 316 318 318 317 322 322 320 325 325 320 322 323 321 322 322 321 323 322 320 319 319 318 318 320 321 321 323 321 317 319 321 318 317 319 317 316 318 319 321 321 321 322 322 322 323 324 339 351 353 362 366 363 361 363 369 371 370 369 367 368 367 361 356 354 357 360 358 354 353 354 355 358 360
316 317 318 319 320 316 312 315 315 314 315 315 315 316 316 317 319 316 316 322 323 321 324 325 323 326 327 323 322 324 325 325 324 322 320 317 318 320 321 322 321 322 319 318 322 320 317 320 322 319 317 319 320 322 322 320 321 321 323 322 322 340 348 342 354 367 362 358 362 368 371 372 371 368 366 362 358 355 354 357 358 358 358 357 354 352 357 359
316 316 317 318 319 318 313 314 315 315 316 315 315 317 317 319 320 317 318 325 326 325 324 323 324 328 330 324 322 326 327 323 323 323 320 319 320 318 320 323 322 322 321 322 323 319 319 321 321 321 321 323 322 322 322 320 319 318 322 326 324 337 351 351 359 367 362 358 365 367 362 367 372 370 368 361 357 354 352 355 357 355 355 356 355 352 354 356
315 315 317 317 318 318 313 314 317 317 317 315 315 318 318 318 319 317 323 329 327 329 326 319 321 325 324 321 321 323 324 322 323 323 320 319 320 319 321 322 320 323 325 321 319 320 322 320 317 320 322 323 323 323 323 318 315 314 319 326 324 338 363 368 365 363 356 352 361 360 346 356 372 367 363 360 358 353 350 354 356 353 353 353 355 354 353 355
314 315 316 315 316 315 314 317 317 317 317 315 316 319 317 319 319 317 328 333 329 332 328 319 320 322 321 320 321 322 323 325 322 320 320 319 321 322 321 322 320 323 324 321 321 322 322 320 318 320 322 322 322 323 322 318 315 314 315 320 333 356 372 373 365 359 353 346 352 357 342 345 360 359 359 362 362 355 351 355 352 351 353 350 352 354 353 355
314 314 314 314 314 312 315 318 316 317 318 315 317 318 316 319 318 316 327 331 328 329 327 320 318 320 320 318 320 323 323 324 321 319 322 320 321 321 321 324 323 320 323 323 320 319 322 322 321 321 323 320 320 321 320 320 316 313 322 342 360 374 378 373 362 355 355 347 348 362 353 343 349 352 356 363 366 360 355 358 354 350 352 349 350 353 354 354
313 314 313 313 312 311 313 315 316 317 316 315 317 317 318 319 319 323 329 325 323 323 323 321 318 318 319 317 320 324 321 321 321 319 321 320 321 321 321 324 324 322 325 322 319 321 323 323 322 323 323 319 321 326 323 320 317 317 334 356 368 375 376 370 360 350 348 339 338 355 353 344 349 351 355 365 369 365 360 358 355 352 351 350 350 351 353 351
312 313 313 312 312 312 313 313 315 317 316 317 316 317 319 316 319 329 329 323 323 322 321 319 319 318 318 318 319 322 320 320 322 320 320 321 321 321 321 325 325 323 322 320 323 325 322 323 325 322 322 322 324 328 322 319 321 319 326 337 342 350 357 358 354 341 333 329 327 337 342 343 350 354 357 364 365 364 360 357 355 353 350 351 351 350 351 350
311 312 312 312 312 312 312 312 314 317 319 318 317 317 317 322 331 327 320 322 323 323 320 317 319 318 318 320 319 319 320 320 323 322 321 321 321 321 320 322 325 326 326 325 325 325 323 326 330 327 324 325 324 324 319 319 322 318 323 330 327 337 346 348 351 338 328 329 324 325 335 340 345 354 360 360 358 356 357 358 357 353 350 351 351 351 350 348
311 311 312 313 312 311 313 315 316 317 319 317 318 318 315 328 339 324 317 322 323 322 321 318 319 318 318 320 319 319 319 320 323 321 322 322 322 323 319 322 326 327 333 333 323 325 327 323 327 330 328 326 322 322 319 320 324 323 333 333 320 327 335 336 343 334 324 328 328 332 339 337 340 352 360 359 354 352 356 360 358 355 353 352 351 352 352 349
311 310 311 312 312 312 314 317 315 314 317 317 318 323 322 321 322 319 321 323 321 322 321 318 319 319 318 318 319 320 318 319 322 321 323 322 322 325 321 327 330 321 323 327 320 323 329 324 324 326 329 330 324 324 322 325 331 328 336 335 325 328 328 327 332 326 321 324 327 341 345 338 344 356 360 362 358 354 356 357 356 354 354 353 352 352 352 351
311 311 311 312 314 314 314 314 314 314 317 318 320 331 333 321 318 321 324 322 320 321 320 320 321 319 318 317 319 321 317 319 321 320 322 320 322 325 321 325 329 319 319 321 316 319 324 324 325 322 325 328 325 326 319 322 330 324 327 329 325 330 329 327 330 324 325 326 324 339 345 342 351 357 358 363 358 355 355 354 354 354 353 353 351 351 350 349
312 312 312 314 315 316 317 316 315 316 317 318 322 329 322 316 323 329 328 327 325 322 322 323 321 318 317 318 320 320 317 318 320 319 320 320 319 323 323 320 322 324 325 320 317 319 317 317 323 320 321 324 325 329 323 325 330 324 329 330 324 331 330 327 329 325 325 329 330 339 341 343 354 354 356 361 353 351 355 353 353 352 351 350 349 350 349 348
312 312 314 317 318 320 321 318 316 317 316 319 329 328 316 313 321 326 329 332 326 322 322 320 320 317 316 318 320 319 317 317 321 320 319 321 320 323 327 322 321 326 325 319 318 320 316 316 324 322 319 321 323 326 326 330 328 321 328 329 321 329 335 331 331 329 329 334 341 345 343 347 355 354 355 357 352 353 354 350 349 349 349 349 348 350 350 348
312 313 317 318 320 323 322 320 318 317 318 322 324 320 317 319 320 321 328 327 320 321 322 319 320 316 313 318 320 320 318 316 320 320 317 320 320 321 326 323 322 324 323 323 321 319 316 317 323 323 321 323 322 323 324 323 325 329 328 324 322 329 339 334 328 332 335 333 336 344 351 357 353 347 352 356 353 357 357 352 350 349 348 349 349 349 348 347
312 316 320 320 322 323 322 321 318 317 319 322 321 321 324 323 319 324 330 323 317 321 321 318 319 316 312 315 319 323 321 316 317 317 316 318 318 320 324 322 320 321 324 325 320 318 319 317 321 324 321 322 322 325 329 323 327 332 325 326 329 328 334 335 329 334 335 329 336 347 354 356 347 343 351 354 352 356 358 355 352 349 349 349 348 347 345 345
314 318 321 321 323 323 322 321 316 318 322 319 324 333 332 322 317 322 324 318 316 319 320 318 318 318 315 313 318 323 320 315 316 319 318 317 316 320 324 322 319 320 322 323 319 320 320 316 319 325 322 322 327 328 328 326 327 329 327 330 330 324 328 329 326 330 328 326 339 347 347 348 347 351 357 354 353 356 357 357 355 352 352 349 347 345 343 343
316 322 324 321 323 323 321 318 316 321 322 318 324 330 323 319 322 324 322 317 316 317 319 320 318 318 319 317 319 321 317 315 317 319 317 315 317 318 321 322 321 321 322 322 323 325 325 318 316 323 322 318 326 330 326 325 328 330 331 333 334 333 332 327 323 328 331 332 337 340 342 346 352 362 367 360 362 365 359 357 356 352 351 349 346 344 342 342
317 327 327 320 321 322 318 316 318 322 320 319 328 328 317 316 321 322 322 317 316 317 319 321 319 318 322 323 321 318 319 320 318 317 316 316 318 318 319 321 320 322 322 321 325 327 328 320 314 322 327 318 321 329 329 330 330 330 330 328 330 332 328 326 326 329 334 340 340 337 340 351 359 362 367 366 366 366 359 354 354 352 349 348 345 343 342 342
316 326 327 320 318 319 316 315 319 321 320 320 325 322 317 318 317 318 322 317 316 317 316 319 321 320 322 322 321 318 320 322 320 319 319 318 319 318 319 323 323 323 322 323 328 324 323 324 318 320 321 317 321 327 328 329 332 335 335 330 330 331 327 328 328 328 333 337 340 338 336 348 356 352 360 369 364 360 356 352 353 352 348 347 345 342 341 343
318 319 322 319 318 318 315 319 322 320 320 320 318 316 318 323 320 318 319 316 316 316 315 318 319 319 320 320 320 320 322 323 321 319 319 320 322 321 320 324 324 326 326 324 323 325 333 339 328 321 322 323 324 324 321 322 327 334 335 335 336 336 338 337 331 331 332 329 336 336 331 341 351 347 354 363 358 355 353 351 353 351 347 346 345 342 341 344
320 320 321 319 321 319 316 324 327 322 322 323 320 318 318 320 318 317 317 316 316 316 317 319 319 320 321 319 318 319 320 321 320 320 321 322 323 322 321 323 323 327 329 323 320 328 338 339 328 327 339 340 328 325 324 324 326 327 326 332 334 334 344 347 342 340 334 328 334 333 328 341 352 348 351 354 352 354 351 349 352 350 349 347 344 344 343 344
319 320 324 322 321 319 317 322 326 327 331 330 325 324 322 320 318 318 319 318 319 318 318 321 320 319 321 318 318 320 318 317 317 320 322 321 321 323 323 324 324 325 325 326 326 323 322 328 326 322 328 329 322 324 327 325 327 326 324 329 332 335 341 338 337 341 334 329 335 331 331 346 353 350 352 352 353 355 350 347 349 349 348 347 345 345 343 343
319 321 326 326 323 321 321 323 324 327 332 331 332 333 329 325 322 321 321 320 321 319 318 321 320 319 320 318 318 320 320 317 317 319 321 320 321 323 321 322 322 323 331 338 339 329 324 334 340 326 317 318 323 328 331 327 323 322 324 327 331 335 334 329 330 332 328 328 333 332 336 350 358 353 351 352 354 354 352 348 346 346 346 346 346 345 343 342
323 328 334 335 332 329 328 327 326 330 333 333 337 336 329 327 327 324 321 320 319 318 318 320 320 319 319 318 318 320 320 319 320 323 324 322 321 320 319 321 322 327 343 348 345 343 337 338 350 345 326 322 331 339 339 332 321 316 320 325 330 333 334 333 331 327 330 332 333 341 345 343 350 356 352 356 359 356 354 350 346 345 345 346 346 343 341 340
324 329 333 334 334 336 336 330 327 331 333 331 335 335 328 327 329 326 324 322 320 320 319 320 320 319 320 320 320 321 322 321 323 325 324 323 322 320 320 324 328 338 348 342 338 347 336 322 333 347 337 331 339 339 333 328 321 317 318 320 330 337 333 332 331 330 336 331 328 349 354 336 344 365 360 360 364 358 354 350 346 345 345 345 344 341 339 338
323 326 327 326 330 336 336 331 328 329 330 329 335 335 328 327 329 327 326 325 323 322 321 321 323 323 324 322 319 321 324 322 322 323 324 323 323 323 322 322 326 334 338 330 332 347 339 321 322 329 328 331 333 329 326 326 323 324 324 322 330 338 332 329 334 336 338 331 327 345 353 343 354 371 364 358 359 355 350 346 344 344 343 342 341 340 340 339
326 329 329 324 327 332 330 328 328 330 332 333 335 333 326 327 328 325 324 326 328 326 321 321 326 327 326 324 326 330 329 322 319 322 326 324 322 325 327 323 323 326 328 324 328 336 334 328 327 323 319 324 328 327 325 324 323 326 331 329 330 336 335 334 342 342 338 338 342 345 349 354 359 360 357 351 346 345 344 342 342 341 341 342 340 338 340 339
324 328 329 327 330 333 331 329 329 332 336 335 332 328 325 326 326 323 323 325 328 328 324 323 327 330 327 329 335 336 331 327 324 325 328 325 323 328 328 326 328 328 324 323 326 327 324 327 336 333 319 318 329 332 327 326 330 331 331 331 330 333 336 338 347 347 337 342 354 350 347 356 354 346 346 344 340 344 344 341 341 340 339 341 339 338 340 341
316 318 321 325 332 334 332 331 331 331 334 333 330 326 325 324 324 323 325 325 325 325 325 325 327 331 331 335 336 329 325 327 326 326 329 325 324 330 327 325 331 331 326 323 324 329 329 328 333 333 320 316 323 329 327 330 335 333 332 333 331 333 337 339 346 349 341 345 355 344 340 354 354 342 343 345 342 344 344 341 341 340 339 340 340 340 340 340
313 315 317 321 329 333 333 334 333 331 329 328 326 323 322 323 322 324 330 332 328 323 324 324 326 330 334 334 330 325 322 324 324 323 325 322 323 330 327 325 329 328 326 327 326 332 339 332 327 327 322 317 322 331 332 330 329 330 335 337 336 341 345 340 342 348 347 351 354 342 341 354 350 342 351 355 346 342 342 341 341 340 340 340 339 341 341 340
Wind_Speed
18 17 17 17 16 16 16 17 16 17 16 16 16 15 15 16 17 17 15 13 12 11 9 9 8 8 8 8 8 8 9 8 6 3 5 6 5 7 7 7 7 5 5 5 7 8 7 5 4 4 4 2 1 1 1 1 1 2 2 2 1 1 2 2 3 3 3 1 3 2 3 3 3 2 1 2 4 5 5 2 4 5 6 8 14 21 25 24
18 18 18 17 17 17 17 17 17 17 17 17 16 15 15 16 16 17 15 13 12 10 9 8 8 8 7 7 8 7 10 9 5 6 7 4 7 11 9 8 7 5 5 5 6 7 6 3 5 5 3 1 1 1 1 1 1 1 2 1 1 3 2 2 3 3 2 1 1 1 3 2 3 0 1 1 2 6 6 1 5 8 8 10 17 22 22 23
17 18 17 17 17 17 18 18 18 17 17 17 16 15 15 15 16 16 16 13 11 10 9 8 7 7 7 7 7 8 9 7 3 4 3 5 11 13 11 8 6 5 5 3 4 6 6 8 10 6 3 1 1 1 1 0 1 1 2 1 3 2 3 3 3 3 2 3 2 1 2 2 1 2 1 2 4 6 8 4 5 7 8 10 13 18 21 21
17 17 17 18 18 18 18 18 18 18 18 17 16 16 15 15 16 16 16 14 11 10 9 8 7 7 7 7 7 8 8 3 1 2 2 4 10 12 11 10 6 4 5 2 3 6 7 10 9 4 3 0 1 2 1 2 2 1 3 2 3 2 3 4 4 4 2 4 3 2 1 3 2 2 0 4 5 4 7 8 7 10 12 13 11 14 18 18
17 17 18 18 18 18 18 18 18 18 18 17 16 16 15 15 15 16 16 15 12 9 9 7 6 7 6 7 7 7 5 3 2 3 3 4 7 10 11 10 7 4 5 4 4 7 6 6 4 3 2 0 0 1 2 4 4 1 3 4 4 4 3 3 3 4 2 4 4 3 1 1 1 1 1 5 6 3 5 7 9 12 14 16 15 14 15 15
19 19 19 19 19 19 19 19 19 19 18 17 17 16 15 15 15 16 15 14 12 9 8 6 5 6 6 6 5 5 4 1 4 3 4 5 7 9 11 11 9 5 6 6 6 6 4 4 4 2 1 0 2 3 3 4 4 2 2 4 5 6 3 2 3 3 2 3 3 2 2 1 2 1 1 4 5 4 3 6 10 12 14 17 17 15 14 13
20 20 20 20 21 20 20 20 19 18 18 17 17 16 15 15 14 15 14 14 12 9 7 6 5 5 6 5 3 3 3 3 6 3 5 5 6 9 11 11 9 7 8 8 7 5 4 5 2 2 2 1 3 4 3 3 5 3 3 3 4 6 4 2 2 4 3 3 0 1 1 2 2 1 0 1 4 5 3 7 11 12 14 16 14 13 13 13
21 21 21 22 22 21 21 20 20 19 18 17 17 16 16 15 14 14 14 13 11 9 7 6 5 5 6 4 1 4 2 4 4 2 5 6 7 9 11 10 9 10 11 10 8 6 4 4 2 2 1 3 3 3 3 4 3 5 4 2 2 3 1 2 3 4 3 2 1 2 3 2 3 2 1 1 4 3 4 10 12 13 14 13 12 12 12 11
23 23 22 22 22 22 22 21 20 19 18 17 16 16 16 15 14 14 13 12 10 8 6 5 4 4 5 3 2 4 2 4 3 2 4 5 6 8 10 10 11 12 11 9 8 7 4 3 3 3 2 4 1 2 3 4 2 6 4 1 3 2 3 3 4 4 3 2 2 2 2 3 3 2 1 2 4 3 5 11 12 14 14 12 11 11 11 11
24 23 23 23 23 23 22 22 21 20 19 18 17 16 15 15 14 13 12 11 9 7 6 3 2 3 4 2 5 4 4 4 2 2 3 4 5 9 11 10 13 13 11 9 8 7 4 5 3 3 2 2 2 3 4 4 3 4 4 5 5 3 3 3 4 4 2 2 3 1 2 5 4 2 1 4 5 2 7 10 10 13 13 13 12 10 11 11
25 25 25 24 24 24 23 22 22 20 19 18 17 16 15 14 14 14 12 10 8 6 5 3 1 2 1 2 4 1 4 3 1 3 3 4 5 9 11 11 14 14 12 8 9 9 8 7 3 2 1 1 3 2 2 3 1 6 7 5 5 4 3 3 4 3 2 2 2 3 1 5 4 1 4 5 3 1 7 10 9 11 11 12 13 11 9 10
26 26 26 26 26 25 25 24 22 21 20 18 17 15 15 14 14 14 12 9 7 5 5 3 1 1 1 2 3 4 1 3 2 4 5 5 5 6 7 8 12 13 11 7 8 11 10 6 3 1 2 2 3 1 1 2 3 5 5 4 4 5 3 0 3 2 2 1 1 3 2 5 3 4 6 3 1 3 7 9 9 10 9 10 11 9 8 10
27 28 27 27 27 27 26 25 24 22 21 19 17 15 14 14 14 14 12 9 6 5 4 2 1 1 1 1 3 2 1 2 3 5 7 7 5 5 6 7 8 9 8 6 6 6 7 7 4 3 3 1 3 1 1 3 4 3 4 3 2 5 4 2 3 4 3 0 0 3 1 6 5 6 6 2 4 4 6 8 8 8 8 8 8 8 8 9
29 29 29 29 28 28 28 26 25 24 22 20 17 15 14 14 14 14 11 7 5 4 3 1 1 0 1 4 3 1 2 3 5 8 9 10 9 5 6 8 9 10 10 9 8 3 3 5 5 3 2 2 2 2 3 4 3 2 3 2 2 2 3 4 1 5 4 0 2 3 2 5 6 7 7 1 4 5 5 7 8 7 7 8 8 9 8 8
30 30 30 30 30 30 29 28 27 25 24 20 16 14 14 14 12 9 6 4 4 4 3 1 1 1 1 5 3 1 3 1 5 9 10 12 11 6 5 8 10 11 12 12 9 4 2 2 3 2 3 1 3 4 3 3 3 2 2 2 2 2 3 6 2 7 5 1 3 4 2 5 6 6 7 1 4 5 6 6 8 7 7 7 8 8 7 8
31 31 31 31 31 31 30 29 28 26 23 18 14 14 13 11 7 3 1 4 4 4 3 2 1 2 1 3 2 3 3 2 4 6 8 13 13 7 2 3 6 8 10 10 6 5 3 2 1 1 1 2 4 4 3 4 3 3 1 2 2 2 2 4 2 5 4 3 2 2 2 3 3 5 7 2 4 5 5 5 6 6 5 5 4 6 6 6
32 32 32 32 32 32 31 30 28 26 20 14 13 11 10 8 6 4 5 6 5 5 4 2 1 2 1 3 3 2 2 3 4 5 7 11 14 11 3 1 1 1 4 4 2 2 1 1 0 1 2 3 3 5 4 2 3 3 0 1 3 3 2 2 2 2 4 4 3 2 2 4 4 5 6 4 2 6 6 5 5 5 4 2 1 3 4 5
33 34 33 33 33 32 32 31 28 23 15 12 11 9 8 8 7 5 7 8 5 4 2 1 1 2 2 3 1 2 4 5 5 5 6 9 12 13 7 1 1 3 3 2 1 1 0 1 2 1 3 2 1 4 3 3 3 3 3 2 3 3 3 4 3 3 6 3 3 4 3 8 7 5 5 4 1 4 5 5 4 5 4 3 2 1 2 2
34 34 35 34 33 33 32 31 28 18 11 12 9 5 7 7 5 3 5 6 3 0 1 2 1 1 3 5 4 5 6 4 3 6 7 7 9 10 7 1 1 2 3 2 2 1 1 2 3 1 1 2 4 5 5 6 6 6 5 4 3 3 4 5 3 4 7 4 3 6 4 5 5 5 5 4 1 3 3 4 4 5 4 3 3 2 3 3
34 34 35 35 34 33 32 33 25 12 10 12 7 3 5 5 4 3 1 1 3 4 4 4 4 1 5 6 4 4 3 2 3 5 7 7 7 7 4 1 3 3 2 2 2 1 3 1 2 5 6 6 7 7 6 4 4 5 3 2 3 3 4 4 3 3 6 4 3 5 3 5 5 5 5 3 1 2 3 5 2 3 4 3 5 5 4 4
34 34 35 35 35 33 33 33 20 8 11 11 6 3 2 2 2 4 5 5 6 8 8 8 6 5 8 8 3 1 1 0 2 3 6 8 7 6 1 2 3 1 2 3 1 2 4 2 6 8 9 9 7 7 6 3 3 3 4 3 3 4 5 4 2 3 5 3 3 3 3 7 7 5 4 2 3 4 7 6 2 1 2 2 5 6 3 2
33 34 35 35 35 33 34 31 13 7 13 9 6 4 4 2 3 5 3 5 7 7 8 7 4 6 10 10 8 3 3 1 4 4 6 7 3 2 1 3 4 3 2 2 2 4 3 3 10 9 7 5 4 5 5 4 3 1 2 1 3 3 3 2 2 1 4 2 3 2 3 7 7 4 4 2 4 5 5 5 3 2 3 4 5 6 5 0
33 34 34 34 35 33 35 26 8 8 16 10 4 5 3 5 7 4 4 2 7 4 4 4 3 5 6 6 7 6 4 3 2 5 8 9 2 3 4 3 3 2 0 3 4 1 1 5 8 5 6 5 3 2 4 4 3 1 1 1 4 3 2 2 2 1 2 1 0 3 2 5 4 3 2 2 6 5 4 5 3 3 4 2 3 3 7 7
33 34 33 35 34 33 34 21 5 12 20 11 2 4 4 11 8 2 5 0 5 5 4 5 4 5 4 2 6 9 3 4 3 3 8 11 3 2 4 3 3 1 3 5 7 5 6 7 3 3 6 6 2 1 4 4 0 3 4 4 4 3 3 2 2 2 2 2 1 4 2 5 3 3 4 3 6 4 3 3 0 2 2 3 3 3 5 7
33 33 32 34 32 33 31 12 3 18 22 7 2 5 11 14 10 3 4 3 3 6 4 3 2 3 4 2 5 6 2 2 5 4 8 11 7 3 2 2 3 2 4 3 5 4 8 7 3 2 2 4 4 2 3 6 1 4 5 8 7 5 5 6 6 4 4 3 2 3 2 5 3 4 5 4 5 5 5 2 1 1 1 4 4 4 4 1
33 32 32 32 32 34 24 3 7 22 17 3 2 9 12 14 10 4 5 5 2 5 3 1 0 2 3 2 3 3 5 3 6 5 7 10 8 4 1 1 1 2 3 4 3 3 5 4 2 4 4 6 4 2 5 6 5 2 5 7 6 5 8 9 8 4 2 2 3 3 3 3 4 5 5 3 5 7 3 5 3 2 2 2 4 5 2 1
32 32 33 31 31 32 17 4 15 19 6 2 6 11 12 14 7 5 3 5 2 3 1 1 1 2 2 2 3 5 2 5 3 3 5 9 6 3 1 2 1 2 3 3 2 2 3 3 4 5 6 6 4 2 5 7 7 3 3 6 9 7 9 10 8 4 2 2 3 4 4 1 3 3 4 1 5 7 4 5 5 2 2 4 5 6 2 3
32 32 33 31 30 28 14 9 16 11 2 5 10 11 13 12 3 4 4 3 1 1 2 1 1 2 0 0 3 4 3 3 1 1 1 7 5 4 1 4 4 4 2 5 1 5 2 2 1 3 6 4 3 5 7 8 4 4 4 8 7 5 6 7 5 3 1 1 3 5 2 1 3 4 4 1 4 5 2 4 5 2 4 6 7 7 4 5
32 32 32 31 29 23 14 12 13 7 4 8 10 12 13 8 1 4 4 1 1 1 1 1 0 1 2 2 1 1 1 1 2 3 2 4 2 3 2 5 5 3 1 5 3 6 2 2 5 6 4 4 6 5 8 8 2 3 6 8 6 4 5 5 4 3 3 3 1 6 1 1 3 3 3 3 4 3 3 4 4 1 4 5 5 7 6 6
33 32 32 32 28 20 15 16 12 4 6 9 10 12 10 4 4 5 1 2 1 1 0 1 1 0 3 3 2 3 2 2 1 2 2 2 2 3 2 2 5 3 2 3 1 5 5 3 3 4 3 5 4 2 4 5 3 5 6 8 7 6 5 4 3 3 4 2 4 7 2 4 1 4 2 0 2 0 2 3 4 3 2 5 5 6 7 6
34 31 31 31 28 19 11 10 6 3 8 11 10 9 5 3 5 4 2 3 2 2 1 1 2 2 4 3 2 2 1 3 2 1 1 1 3 4 2 1 3 3 3 5 3 5 7 3 2 2 1 2 4 3 0 1 3 5 4 5 4 3 5 4 5 4 3 3 5 4 1 6 1 4 3 2 2 3 2 2 3 4 2 4 5 7 7 6
34 32 29 28 25 17 11 9 8 9 12 9 6 5 4 2 1 3 4 3 1 2 0 1 2 1 1 2 2 3 1 2 2 1 3 1 0 1 1 3 2 2 3 2 2 5 5 2 3 5 1 3 5 3 2 5 5 5 4 4 3 2 3 2 3 1 1 4 3 3 2 3 3 5 4 4 3 3 3 2 1 2 3 4 5 6 6 4
35 31 27 24 22 20 19 16 13 12 10 4 2 5 6 3 2 5 4 2 1 2 1 1 1 1 2 1 2 4 2 2 3 1 2 2 1 2 3 3 5 3 1 2 1 4 4 4 5 5 2 2 5 3 1 3 3 3 4 4 3 2 2 1 2 1 2 3 2 4 2 0 3 3 3 4 3 2 2 0 1 2 3 4 3 4 5 4
34 29 26 24 19 17 16 15 14 10 5 2 4 5 5 2 4 4 3 3 2 3 2 1 2 1 3 3 3 3 2 3 3 4 1 2 1 2 3 2 3 4 3 1 0 1 0 2 3 1 1 2 3 4 5 4 3 1 4 5 4 4 4 2 3 2 2 3 2 4 1 2 1 1 3 4 2 2 0 0 1 1 1 3 2 1 2 3
33 27 24 17 12 12 10 9 10 10 6 4 6 4 4 4 4 1 2 3 1 3 4 2 1 2 1 2 4 3 4 4 2 5 2 2 3 3 2 4 4 3 4 2 2 1 2 2 4 5 3 1 1 3 5 5 3 1 2 4 1 2 4 3 3 4 2 1 2 2 1 3 3 3 3 1 1 2 2 2 2 3 2 1 2 3 2 3
33 28 16 8 12 14 11 6 10 15 9 5 5 2 4 4 3 3 2 1 1 2 4 5 2 3 1 2 3 2 2 2 1 3 0 2 3 4 3 4 5 5 5 4 2 1 2 2 5 5 4 2 1 2 3 3 2 0 2 1 2 3 6 5 2 1 3 2 1 2 2 4 2 1 2 3 3 3 3 3 3 3 2 2 2 2 2 3
34 25 9 8 18 14 6 3 14 17 7 6 5 4 4 3 3 3 1 1 1 1 3 3 1 1 0 1 3 4 1 0 0 2 2 2 2 4 3 3 3 5 6 4 2 3 4 1 6 3 4 2 3 2 5 4 3 3 1 3 3 3 4 4 2 3 4 1 2 2 2 4 2 1 3 3 2 3 2 3 3 3 4 4 3 2 2 3
28 17 6 11 17 8 3 7 15 12 5 4 2 4 3 2 2 3 1 0 1 2 4 1 2 0 1 1 3 4 1 2 2 2 3 1 2 3 3 2 1 3 4 4 2 1 4 1 6 3 1 4 5 5 5 5 3 4 4 3 3 3 1 2 2 0 1 0 3 3 3 3 2 2 3 2 3 3 3 3 3 4 5 5 4 4 4 4
15 7 4 11 14 6 10 11 10 5 5 3 3 3 2 2 4 4 3 1 1 2 2 3 2 1 1 3 3 3 2 4 3 2 3 2 1 2 2 2 1 1 2 6 4 1 3 3 3 5 2 3 5 4 2 3 4 4 3 3 2 2 3 2 2 2 2 1 2 3 3 3 4 4 4 5 6 4 2 2 3 3 4 4 4 5 5 5
5 3 2 10 12 9 11 7 3 5 4 3 3 2 2 3 4 5 4 2 1 1 2 3 2 1 3 3 3 2 1 3 4 3 2 2 2 2 2 3 2 2 3 5 4 1 3 4 2 5 4 2 1 1 4 4 1 2 2 2 2 2 2 2 2 1 3 3 2 1 2 4 5 3 5 6 5 4 4 1 1 2 3 3 4 5 6 6
3 2 2 7 7 5 3 4 2 3 2 2 2 3 2 1 2 5 5 3 3 3 3 4 4 3 3 2 3 2 1 1 3 3 2 3 3 2 4 5 6 3 3 5 4 2 1 2 3 1 4 2 3 5 4 6 5 4 3 3 3 4 3 3 1 2 2 3 3 3 1 6 5 2 4 5 4 4 4 3 1 2 2 3 3 4 6 6
2 1 3 6 2 5 2 4 1 1 2 2 2 3 2 1 1 4 4 2 3 3 2 2 4 3 3 4 4 3 2 1 2 2 2 4 5 4 4 5 6 5 5 3 0 2 3 3 4 0 1 2 6 6 1 4 5 5 3 3 4 3 4 5 2 3 1 2 1 3 1 5 5 3 3 3 4 3 3 4 2 2 2 2 3 3 4 5
1 3 4 8 4 4 4 3 2 2 1 3 3 3 2 2 1 3 3 2 2 2 1 1 3 3 4 5 4 3 3 3 2 2 2 3 5 5 4 7 7 4 5 3 2 1 2 4 4 1 4 4 5 4 3 3 4 4 2 2 4 2 3 5 5 3 3 2 1 2 1 5 5 3 2 2 2 2 2 3 3 0 2 3 3 3 4 4
1 4 4 7 7 1 4 1 2 1 3 3 3 2 3 2 2 3 3 3 3 1 1 3 3 3 4 3 3 3 4 3 1 2 2 2 3 3 5 9 7 4 2 3 4 2 0 2 4 2 3 5 4 4 5 4 2 2 1 1 2 4 5 4 2 3 2 3 4 4 2 6 5 3 1 1 2 2 2 2 3 1 1 2 3 3 4 4
2 2 4 7 9 5 3 3 3 2 3 3 3 4 3 2 3 4 5 5 5 3 2 4 3 3 3 2 2 3 3 2 1 1 1 2 1 1 3 5 4 3 3 4 6 4 2 3 4 5 4 3 3 3 3 2 0 0 0 1 2 4 6 4 3 4 1 3 4 4 4 6 5 4 2 1 1 2 2 1 2 1 0 2 2 3 4 4
2 1 3 6 7 5 2 0 3 2 0 2 3 3 1 2 4 4 3 4 4 3 3 5 3 2 3 2 2 3 2 0 0 2 2 3 2 2 0 3 2 1 4 7 7 5 4 2 3 6 7 7 6 6 5 2 2 0 1 2 3 3 4 5 5 2 3 3 2 5 5 2 6 6 5 5 3 2 1 1 2 1 1 2 2 4 5 5
2 1 1 2 3 3 3 3 4 2 1 0 1 2 1 3 4 3 2 2 2 2 3 4 2 1 3 3 2 3 2 2 1 3 3 2 2 2 2 3 2 1 5 7 4 4 5 1 2 6 6 6 7 5 3 0 3 4 2 2 4 4 4 5 5 4 5 5 3 7 5 3 6 7 6 6 4 2 2 1 1 1 2 2 3 5 6 6
1 0 0 1 0 1 1 3 4 3 4 3 2 2 3 3 4 3 3 4 4 4 2 2 2 2 4 4 4 2 1 1 0 2 2 1 1 2 3 4 3 2 3 4 3 4 6 2 4 5 2 3 4 3 3 1 2 3 2 3 5 6 6 6 5 5 6 6 5 6 6 6 7 5 5 6 4 3 3 3 2 2 2 3 4 5 6 7
1 1 1 1 0 2 3 4 4 4 4 3 1 2 3 3 4 3 3 4 5 4 2 2 5 7 6 2 5 2 1 3 2 2 3 2 2 3 2 1 1 3 4 3 1 2 5 2 3 4 2 2 3 2 2 2 1 1 1 3 6 7 7 5 3 4 4 2 3 4 6 7 7 5 5 3 2 3 3 3 2 3 2 3 4 5 6 7
1 1 2 3 2 2 3 3 2 2 3 3 1 2 3 2 4 4 3 2 3 5 4 2 7 8 5 1 5 3 3 5 4 4 5 5 2 2 3 4 3 2 3 2 1 2 4 2 2 3 4 3 5 5 3 1 3 2 4 2 4 5 4 3 2 3 2 1 1 3 3 6 6 3 2 1 2 3 3 3 2 3 2 4 4 5 6 6
3 2 1 1 2 3 2 2 2 1 2 3 2 2 3 2 3 5 4 4 3 3 4 5 8 7 3 3 6 4 2 4 4 6 6 6 5 5 4 4 6 5 2 2 1 2 3 2 1 5 5 1 3 6 5 3 5 4 6 2 5 6 3 2 2 4 4 3 2 3 1 5 5 1 2 2 2 3 3 2 2 2 2 3 3 4 5 5
5 3 1 1 1 2 1 1 2 1 1 1 2 2 3 4 4 4 3 4 3 2 3 5 5 3 3 5 5 4 6 7 8 8 5 4 4 5 4 4 8 8 6 5 2 1 4 4 2 3 3 3 4 4 2 4 7 4 5 4 6 4 3 2 1 3 5 5 5 3 4 5 4 3 3 1 1 2 1 0 1 2 3 3 4 4 4 6
Wind_Direction
10 9 8 7 4 2 360 357 356 355 357 359 3 4 3 3 2 2 358 357 356 351 349 342 336 334 332 331 328 329 333 326 312 271 237 248 214 192 187 182 183 183 175 150 133 128 116 109 123 123 108 105 140 139 196 151 95 78 75 49 359 209 202 186 199 184 147 231 257 337 8 100 104 353 342 41 49 112 135 33 58 55 56 104 123 135 143 147
7 6 5 4 3 1 360 357 356 356 358 359 4 4 4 3 1 3 2 359 356 350 347 336 334 332 327 330 325 330 337 329 313 268 246 215 163 169 173 174 183 192 184 173 171 150 121 127 144 123 85 60 233 169 155 203 86 102 98 87 244 224 231 224 190 178 159 195 212 5 11 76 127 56 337 92 101 140 144 49 78 79 76 105 123 135 144 148
5 4 3 3 2 1 358 356 355 356 358 360 2 3 3 2 360 3 4 1 354 348 343 333 334 330 325 326 324 333 332 331 329 282 243 168 169 173 175 178 187 197 197 196 187 163 127 139 148 124 69 20 244 124 107 227 160 156 99 92 252 235 276 270 204 203 186 144 117 68 1 336 197 174 320 128 149 166 166 160 122 121 129 131 134 141 147 152
6 6 5 4 2 360 357 355 354 355 357 359 0 1 1 360 359 1 3 1 353 347 343 338 336 333 332 329 332 334 331 4 21 259 145 164 181 183 188 193 198 201 205 201 130 144 123 125 136 109 85 287 313 82 149 199 163 153 132 185 228 177 263 263 197 212 177 129 120 102 59 321 273 170 358 125 139 195 194 181 161 154 151 146 148 151 153 155
12 10 8 6 3 0 358 355 354 354 355 356 358 357 356 357 357 358 0 359 354 348 345 344 336 337 338 334 339 335 353 65 262 242 170 184 192 197 201 201 208 208 199 188 131 141 129 108 97 63 74 174 30 66 218 195 154 166 199 204 189 157 240 265 178 190 153 112 105 99 121 295 331 135 121 143 162 217 205 183 161 155 156 155 156 157 157 158
15 13 11 8 6 3 360 357 354 353 352 353 353 351 352 353 353 355 356 355 354 347 348 349 336 344 343 341 347 344 29 69 266 250 208 200 198 209 209 214 218 205 184 169 142 142 122 72 64 75 89 134 189 206 231 184 161 195 246 215 189 171 205 269 160 158 141 114 118 147 213 323 13 292 165 172 210 243 207 159 150 155 157 155 154 157 161 164
15 13 11 9 8 4 1 358 354 352 350 348 346 345 346 347 349 350 350 351 349 345 347 345 342 354 348 350 354 8 60 263 271 252 234 210 201 210 210 217 208 186 177 161 141 130 94 80 81 163 131 279 219 222 236 171 175 208 264 232 199 179 190 283 130 126 116 110 210 226 81 24 350 279 182 235 259 263 197 139 136 148 149 150 155 162 167 170
13 11 9 8 6 4 2 359 356 352 348 345 341 340 340 342 343 342 345 346 342 339 338 339 347 360 356 359 12 15 39 268 282 241 237 212 205 207 198 196 183 175 172 171 161 138 106 116 189 187 122 275 210 215 217 144 182 217 237 241 167 158 129 14 79 81 70 81 354 35 55 311 281 279 319 323 300 304 138 127 127 140 146 153 163 166 170 176
12 10 8 7 4 2 1 359 356 352 347 343 338 336 335 335 335 334 338 337 335 331 327 336 339 3 9 11 55 22 311 285 310 245 237 219 211 199 187 178 173 172 165 176 171 145 149 179 207 188 221 276 214 247 203 144 232 215 207 66 91 70 37 44 67 54 38 47 35 50 8 307 299 314 310 262 288 328 108 124 130 142 150 160 167 170 175 180
10 9 7 5 3 1 359 357 355 351 347 342 336 332 329 327 326 326 327 327 326 317 313 322 326 24 21 29 60 31 291 304 309 231 235 221 200 182 182 179 174 169 160 169 164 149 180 199 187 173 212 275 255 255 189 178 232 177 132 72 79 64 41 62 70 48 28 22 40 76 316 316 330 351 254 254 272 336 110 126 137 147 157 165 169 176 180 184
9 8 6 4 3 359 357 355 352 349 345 341 335 329 324 320 319 317 317 314 309 302 298 293 311 36 44 90 87 267 277 325 271 218 233 211 187 176 177 179 176 169 156 157 184 199 218 212 166 113 176 278 272 266 202 216 166 128 119 82 46 49 53 58 68 43 31 27 66 107 317 310 337 5 229 241 250 97 123 138 149 157 163 168 172 177 183 192
8 7 5 3 2 359 357 354 351 348 344 340 334 326 320 316 313 311 308 302 291 280 276 275 304 17 50 93 171 211 311 1 254 225 227 203 181 177 178 181 178 174 162 157 204 218 229 227 129 109 245 306 319 339 286 293 94 110 106 90 13 25 20 14 101 83 67 6 196 110 328 292 261 224 249 257 116 98 126 146 158 165 170 170 175 179 185 198
7 6 4 2 1 359 356 353 351 347 343 341 334 326 320 314 311 306 300 289 268 254 248 241 290 312 46 321 222 170 13 313 244 226 223 214 199 184 192 200 190 189 189 198 228 230 242 236 177 209 244 349 311 301 355 14 79 81 64 88 28 17 333 269 126 117 116 357 25 103 266 271 258 251 270 331 104 113 130 160 168 169 175 172 180 187 190 194
7 5 4 2 1 359 356 353 350 347 343 341 335 328 323 319 313 303 292 270 241 220 209 189 315 104 116 280 260 97 326 279 228 226 222 217 214 210 216 215 213 214 219 236 248 256 281 238 202 241 254 168 269 341 26 17 41 61 64 57 46 57 290 295 144 137 143 181 72 99 221 265 281 281 278 309 118 139 154 175 176 171 175 178 186 191 190 193
5 4 3 2 1 359 356 354 351 347 343 341 337 334 333 330 320 307 286 234 203 180 175 110 58 111 16 294 284 11 326 273 228 233 229 223 216 218 224 216 223 226 231 246 251 251 276 216 192 260 272 266 46 48 27 12 11 43 88 322 347 162 262 305 233 165 155 102 92 116 218 271 283 288 286 294 124 152 169 182 183 178 176 179 191 193 191 194
3 2 1 1 0 359 356 354 351 347 343 343 345 344 346 347 344 346 144 164 159 156 142 88 87 106 76 294 326 334 281 217 252 253 229 227 222 218 208 217 237 235 235 243 248 251 243 178 160 230 264 6 65 87 51 28 352 354 92 246 274 195 276 316 244 190 161 121 123 164 200 272 289 308 314 338 134 150 165 186 183 175 167 164 183 195 191 185
2 1 360 359 359 358 356 354 351 347 346 350 353 356 5 13 29 73 121 127 139 148 122 91 80 55 279 274 321 321 257 229 264 259 229 229 229 227 230 5 322 230 226 224 229 258 213 135 82 333 30 35 87 101 69 17 307 312 36 249 256 206 212 284 286 218 164 148 169 175 213 251 268 310 328 344 120 148 168 185 178 169 154 93 85 182 180 165
359 359 358 357 356 356 356 353 351 350 350 355 360 14 28 38 60 90 124 117 120 134 80 355 95 48 282 269 296 264 280 277 255 237 232 231 228 229 231 258 32 29 29 43 360 340 41 11 53 57 8 9 98 106 124 219 213 208 204 216 260 243 220 239 272 198 164 153 160 158 238 257 272 306 312 324 67 155 181 169 167 181 153 62 49 194 198 159
355 356 356 356 355 354 354 352 351 352 356 359 360 31 41 40 61 89 135 113 79 158 297 264 164 51 245 245 273 285 284 274 226 210 214 217 215 216 216 195 56 34 49 46 321 318 113 32 50 130 248 239 212 174 176 202 180 179 195 179 198 245 248 230 245 201 162 136 174 186 229 263 283 307 287 300 73 151 175 137 144 182 166 109 118 199 235 239
353 353 353 354 353 352 352 351 351 357 2 360 355 36 37 19 24 360 279 190 215 220 240 229 183 240 269 260 286 312 291 220 200 208 201 198 178 164 173 68 53 47 98 156 255 288 111 100 256 219 209 211 217 211 197 175 139 139 162 205 224 253 272 250 243 215 155 134 226 205 232 276 276 285 277 280 129 125 79 79 99 180 174 154 166 191 210 231
350 350 350 351 351 352 351 348 352 8 1 4 20 52 98 97 28 320 310 296 244 214 232 238 198 225 259 258 255 56 34 263 248 232 191 189 151 133 188 43 88 312 266 175 162 11 74 133 243 226 212 212 206 210 208 164 116 123 157 208 268 252 252 266 255 210 162 151 265 197 218 265 262 268 266 211 122 74 63 63 10 282 178 204 191 179 188 249
348 347 347 348 348 350 349 348 356 13 3 15 50 78 141 127 327 270 264 310 280 219 218 243 230 251 261 258 247 195 84 20 298 286 188 168 119 155 243 69 127 221 277 107 64 3 23 243 248 233 202 195 191 193 183 144 121 114 140 196 280 258 223 289 346 180 163 158 285 203 202 259 262 262 249 170 104 88 110 141 176 180 172 223 216 173 158 65
345 345 346 345 346 348 347 347 0 12 3 5 48 101 127 343 331 254 183 286 293 261 211 221 210 241 270 268 220 161 119 173 263 279 187 155 113 184 153 109 160 199 66 152 155 120 287 245 247 218 151 152 197 190 142 108 92 181 183 206 277 273 174 256 322 118 140 93 198 171 202 272 286 307 300 91 99 113 138 148 178 203 173 209 264 206 170 155
344 344 344 343 343 346 346 344 5 7 355 348 53 90 355 340 344 186 167 310 296 288 245 212 197 206 243 274 169 146 126 177 182 257 181 153 130 152 159 164 150 160 248 199 163 174 243 241 213 109 126 153 182 82 118 118 17 251 203 180 238 247 170 170 172 126 31 353 113 102 28 309 322 359 344 40 84 88 64 87 134 320 344 329 313 269 221 177
343 343 342 343 342 343 345 341 4 354 345 339 88 11 346 342 343 170 153 26 304 292 282 224 232 215 208 114 155 161 105 193 208 212 175 160 148 135 195 176 130 243 250 184 146 191 258 254 193 143 123 136 151 218 186 155 165 289 222 198 208 205 151 127 135 114 41 323 252 94 54 302 328 23 349 2 68 61 18 335 210 94 321 304 305 276 278 308
343 342 342 343 340 341 347 349 333 342 336 323 16 344 340 340 340 153 127 33 305 286 306 190 283 210 199 112 152 126 61 303 240 179 171 179 164 127 164 245 44 249 207 157 146 194 260 281 123 141 133 115 119 255 237 160 135 281 233 194 177 157 138 139 150 129 88 248 291 70 123 266 325 24 356 341 89 91 61 284 258 163 183 247 302 290 303 92
341 341 341 340 339 343 348 305 321 334 331 302 334 333 334 338 341 152 100 23 306 271 219 236 356 139 184 170 140 105 97 280 270 139 172 185 172 81 127 243 319 246 192 115 29 253 237 338 33 83 86 93 106 257 233 148 131 235 236 139 136 148 152 156 155 126 170 206 356 20 108 165 313 342 314 282 97 94 120 253 261 189 189 194 224 250 218 190
339 339 339 336 337 339 334 306 317 325 286 301 318 323 330 334 326 137 75 46 280 293 162 256 299 154 287 153 137 125 193 259 77 299 243 165 164 64 74 232 192 219 213 103 360 268 224 350 288 117 80 97 184 216 188 143 133 232 181 120 131 156 146 142 131 96 36 78 348 322 74 94 277 281 296 329 76 59 77 266 270 202 204 214 223 233 207 207
336 337 336 332 331 334 328 308 303 298 302 313 317 320 324 328 7 87 66 115 271 3 137 350 333 219 6 67 185 311 301 353 138 271 341 127 169 72 132 219 168 191 265 110 184 255 256 248 201 150 121 196 223 224 178 153 150 189 131 86 65 58 77 86 93 89 36 50 280 279 262 123 279 285 317 13 58 15 342 311 310 253 212 222 239 255 239 219
333 334 334 329 327 329 321 304 292 283 323 321 316 318 326 353 67 70 48 232 263 293 203 12 230 205 77 108 287 309 275 269 248 323 22 101 330 27 137 177 103 112 332 31 235 256 300 297 191 151 171 195 177 159 183 169 139 131 102 66 60 40 43 57 45 74 52 7 268 270 213 137 303 291 277 359 109 277 319 322 341 7 246 226 226 249 253 248
331 332 331 325 321 317 304 296 292 294 313 313 317 327 351 37 68 94 207 239 256 288 356 318 282 46 99 145 252 287 252 283 305 58 68 343 355 24 55 22 45 46 3 1 324 302 336 348 230 263 251 137 103 95 247 8 89 112 90 77 92 6 14 36 360 40 81 275 270 287 162 127 172 268 249 250 219 203 209 258 339 358 294 236 220 230 237 235
331 331 326 320 314 298 268 268 285 289 294 304 331 5 76 72 47 170 243 294 301 262 121 204 271 17 95 153 231 235 185 264 280 135 144 155 167 138 163 192 171 17 339 317 321 336 338 271 276 310 313 87 82 93 344 3 39 89 91 82 94 360 11 30 335 21 175 252 279 344 25 120 231 249 246 267 256 222 206 204 304 326 286 247 226 238 245 228
331 330 324 318 309 289 275 276 277 276 277 279 11 46 84 95 227 213 245 309 263 255 214 158 286 316 153 145 252 230 185 220 245 166 148 131 165 257 270 207 162 117 253 227 325 356 328 303 340 346 319 75 95 123 266 346 32 100 131 119 111 88 62 341 283 313 268 253 275 334 352 262 283 281 240 249 252 233 217 249 266 263 274 262 231 243 267 268
332 332 324 316 310 301 292 277 258 247 241 159 77 65 93 148 233 219 236 257 263 304 315 243 316 360 148 183 247 213 189 242 184 135 147 94 89 267 287 261 172 127 116 146 60 68 88 309 340 330 286 31 100 156 167 150 95 121 162 135 133 148 141 188 212 186 231 241 292 327 333 174 249 271 222 222 254 277 234 351 329 66 330 296 301 283 294 305
333 333 326 320 330 338 327 281 234 203 176 108 71 80 142 203 244 205 224 247 292 321 308 298 33 61 149 259 277 210 196 245 155 114 133 162 168 198 215 225 204 139 114 146 239 137 131 240 262 268 275 62 153 181 141 105 89 204 151 94 83 180 137 136 176 165 167 189 331 327 246 211 215 247 257 233 348 344 21 33 47 73 85 319 354 356 354 339
335 337 336 339 345 341 328 286 189 169 158 99 80 144 195 216 216 174 202 233 28 322 329 344 47 84 332 293 304 296 206 225 133 107 212 224 192 197 209 221 195 157 141 148 203 173 88 288 287 320 2 40 223 192 112 87 136 229 49 87 234 169 118 116 150 51 63 95 303 332 299 300 319 300 315 17 10 349 15 18 19 41 71 96 67 24 6 336
336 339 341 342 342 338 318 236 167 156 131 94 123 204 221 214 187 181 226 347 335 29 53 11 329 137 251 264 285 302 320 249 174 148 214 263 220 200 218 247 196 178 176 146 178 190 126 259 290 356 55 356 319 69 68 65 128 117 97 205 201 110 96 103 110 16 35 103 280 341 309 298 353 353 320 357 339 310 339 355 353 3 20 35 29 21 5 316
331 332 325 341 348 360 96 154 157 142 86 99 176 240 213 183 198 215 255 50 325 43 93 178 252 221 157 183 267 278 186 194 251 176 167 215 240 191 182 221 157 170 184 130 105 170 114 106 292 316 120 290 334 55 55 7 44 121 151 161 111 112 138 43 80 72 46 36 297 318 305 278 202 218 275 246 218 242 298 340 3 3 7 9 357 352 345 323
329 335 334 353 4 63 119 135 146 94 67 137 227 259 216 240 255 241 226 163 123 101 133 221 231 349 234 189 222 248 180 183 204 175 156 158 206 205 189 195 126 72 147 129 127 168 96 112 268 288 273 300 357 59 122 321 1 44 61 40 45 120 152 103 91 152 137 128 271 310 331 289 231 213 194 205 216 215 253 324 3 346 348 353 341 342 342 336
349 23 322 2 29 103 124 117 86 57 93 173 211 224 247 261 266 271 250 219 198 175 208 219 182 248 260 230 227 232 167 167 172 166 182 162 159 254 250 192 141 56 54 90 102 87 60 97 194 286 321 13 22 152 170 175 130 60 52 26 26 70 118 128 77 81 119 133 180 286 324 273 253 207 172 194 214 202 204 232 315 305 332 341 332 343 346 338
8 46 268 3 39 135 104 39 59 92 125 208 217 222 272 268 268 302 281 220 214 229 217 192 186 217 247 272 275 236 144 151 168 157 192 184 157 202 224 187 162 146 90 70 70 114 112 108 141 298 359 67 237 245 182 171 172 153 152 164 145 122 122 110 28 315 103 119 162 155 242 270 262 211 183 188 191 196 192 172 218 293 321 329 328 346 342 331
11 29 279 3 14 206 53 49 177 105 136 209 231 221 266 320 249 289 294 242 215 230 227 201 205 215 221 234 250 224 161 185 191 161 188 197 183 196 199 159 139 124 113 105 170 175 145 100 95 184 258 209 254 272 196 161 157 130 122 138 137 128 118 121 171 237 117 90 137 124 172 270 269 247 224 199 186 191 175 152 158 290 311 323 321 332 329 321
26 294 295 13 18 197 85 52 284 351 185 241 266 219 238 306 244 261 288 268 228 215 187 236 207 203 223 219 219 218 187 186 186 176 202 208 205 216 185 146 131 101 95 120 219 181 99 86 80 322 301 316 308 323 23 64 92 88 56 88 121 130 125 139 170 174 133 150 150 90 283 270 277 275 245 199 178 158 156 150 136 229 312 332 322 317 319 318
320 277 274 357 4 89 120 143 240 283 283 300 330 301 286 259 213 248 270 254 249 210 192 249 222 212 233 193 177 221 205 184 183 178 176 187 195 198 173 161 147 125 132 169 175 162 104 105 96 73 352 349 348 353 355 350 41 81 352 23 114 114 105 113 123 90 104 191 154 120 234 256 270 292 286 133 125 130 169 171 135 129 313 333 326 319 314 311
326 277 260 323 356 45 136 174 147 169 286 335 327 302 307 281 242 242 250 256 249 212 210 259 236 229 257 199 180 245 210 177 217 190 156 194 226 16 163 165 136 137 199 170 138 121 117 134 116 117 149 181 191 211 253 264 221 114 292 116 128 116 116 133 115 81 116 197 143 144 215 261 293 310 302 264 171 149 149 72 69 92 327 314 320 321 314 314
29 15 304 321 356 38 83 61 83 107 316 10 320 289 297 321 298 265 243 256 250 219 227 253 242 249 268 224 209 256 243 182 166 160 152 171 200 328 318 143 114 190 162 126 109 91 93 121 127 134 162 187 193 214 232 177 123 227 282 144 158 135 107 111 106 121 184 159 175 216 202 262 303 290 271 275 268 207 186 44 54 53 341 330 330 324 319 322
83 58 348 344 341 8 24 11 38 43 328 316 287 300 341 330 317 314 296 269 281 280 244 240 210 183 239 211 185 246 269 6 67 154 160 169 197 313 351 93 72 218 139 115 81 80 100 123 162 145 176 200 184 208 264 122 154 203 220 160 155 135 106 114 139 194 165 125 258 254 180 178 272 266 252 258 252 232 226 184 128 70 353 355 345 328 324 328
60 333 153 117 288 297 348 344 355 347 310 268 243 320 348 345 347 344 313 299 319 334 325 314 344 325 270 217 176 202 250 32 344 180 160 143 109 26 16 41 24 352 108 90 19 86 109 149 191 162 199 226 181 203 246 231 180 170 173 188 170 156 155 160 182 195 151 140 236 238 169 189 243 253 250 248 222 180 167 157 119 72 22 359 347 331 327 329
3 360 314 23 134 220 251 298 315 320 312 296 309 357 359 352 350 329 285 303 324 335 11 326 310 318 313 214 157 154 178 159 194 232 189 160 125 95 81 81 12 11 60 78 23 90 109 150 199 160 89 357 330 287 223 210 171 89 340 242 195 174 165 154 172 180 143 146 234 189 179 222 243 234 243 253 180 149 132 119 80 58 20 347 338 327 326 330
18 352 329 357 358 269 263 289 319 338 332 336 354 344 330 333 345 328 285 252 302 322 360 326 295 310 321 134 116 109 198 186 190 221 181 152 161 176 167 177 176 44 50 93 34 48 93 134 186 103 71 1 346 11 17 320 159 121 1 358 148 142 124 106 123 153 137 313 283 118 159 257 265 226 205 93 118 127 101 79 52 45 358 331 328 322 323 327
333 283 319 25 329 302 288 309 358 62 4 355 19 334 316 314 345 335 292 236 234 297 335 317 298 300 324 48 79 81 272 240 228 235 203 171 181 190 191 189 168 141 130 182 150 79 99 106 70 73 78 283 340 29 18 19 77 55 355 6 148 142 145 169 172 174 178 180 136 91 123 261 265 202 129 80 97 112 96 56 16 2 328 318 314 316 323 323
350 316 349 83 278 316 3 330 344 80 176 305 338 322 302 296 322 337 313 285 266 261 306 322 318 314 353 28 48 25 317 282 259 255 236 221 222 193 161 161 162 153 159 164 130 92 125 128 144 106 104 250 304 17 35 48 51 6 299 219 175 152 139 170 233 223 191 150 136 167 219 243 246 180 165 166 109 139 156 134 330 302 305 310 299 298 321 328